EW4939 Weather Reports


Display with metric or nautical units.
time (UTC)temp
F
wind
direction
speed
MPH
gust
MPH
rain 1hr
in
rain 24hr
in
rain mn
in
humidity
%
barometer
mb
20260906221819 80 20 1.0 1.0 0.00 0.00 0.00 52 1015.4
20260906221318 80 345 0.0 1.0 0.00 0.00 0.00 50 1015.5
20260906220814 80 12 6.0 9.0 0.00 0.00 0.00 50 1015.5
20260906220309 80 29 4.0 6.0 0.00 0.00 0.00 49 1015.6
20260906215807 80 331 4.0 7.0 0.00 0.00 0.00 48 1015.7
20260906215306 80 11 2.0 3.0 0.00 0.00 0.00 50 1015.4
20260906214801 80 353 2.0 6.0 0.00 0.00 0.00 49 1015.5
20260906214256 80 336 0.0 2.0 0.00 0.00 0.00 50 1015.5
20260906213755 80 18 2.0 10.0 0.00 0.00 0.00 50 1015.5
20260906213254 80 117 0.0 6.0 0.00 0.00 0.00 50 1015.5
20260906212752 80 16 2.0 8.0 0.00 0.00 0.00 48 1015.4
20260906212248 81 346 3.0 6.0 0.00 0.00 0.00 48 1015.5
20260906211747 81 227 1.0 2.0 0.00 0.00 0.00 49 1015.5
20260906211242 81 39 2.0 3.0 0.00 0.00 0.00 47 1015.5
20260906210738 80 6 4.0 7.0 0.00 0.00 0.00 47 1015.6
20260906210232 81 44 1.0 4.0 0.00 0.00 0.00 46 1015.6
20260906205727 81 116 1.0 6.0 0.00 0.00 0.00 51 1015.7
20260906205224 82 305 1.0 1.0 0.00 0.00 0.00 47 1015.6
20260906204724 81 296 2.0 7.0 0.00 0.00 0.00 47 1015.5
20260906204223 81 351 1.0 4.0 0.00 0.00 0.00 49 1015.6
20260906203723 81 25 1.0 2.0 0.00 0.00 0.00 46 1015.6
20260906203218 81 28 2.0 3.0 0.00 0.00 0.00 46 1015.5
20260906202715 81 268 1.0 3.0 0.00 0.00 0.00 46 1015.4
20260906202214 81 20 2.0 2.0 0.00 0.00 0.00 46 1015.5
20260906201710 82 12 2.0 3.0 0.00 0.00 0.00 46 1015.5
20260906201209 81 38 2.0 3.0 0.00 0.00 0.00 49 1015.5
20260906200705 82 354 2.0 3.0 0.00 0.00 0.00 46 1015.6
20260906200200 81 9 0.0 3.0 0.00 0.00 0.00 49 1015.5
20260906195656 81 21 2.0 4.0 0.00 0.00 0.00 47 1015.5
20260906195152 81 11 3.0 8.0 0.00 0.00 0.00 46 1015.5
20260906194648 80 15 5.0 8.0 0.00 0.00 0.00 45 1015.6
20260906194143 82 5 2.0 4.0 0.00 0.00 0.00 47 1015.6
20260906193638 81 278 2.0 3.0 0.00 0.00 0.00 45 1015.6
20260906193133 81 173 2.0 4.0 0.00 0.00 0.00 48 1015.6
20260906192629 81 343 3.0 6.0 0.00 0.00 0.00 45 1015.7
20260906192128 82 335 1.0 6.0 0.00 0.00 0.00 44 1015.8
20260906191623 80 322 1.0 6.0 0.00 0.00 0.00 47 1015.7
20260906191123 80 34 6.0 8.0 0.00 0.00 0.00 46 1015.7
20260906190622 80 5 5.0 8.0 0.00 0.00 0.00 48 1015.7
20260906190117 79 337 4.0 6.0 0.00 0.00 0.00 50 1015.8
20260906185616 80 27 0.0 8.0 0.00 0.00 0.00 50 1015.8
20260906185115 80 37 2.0 8.0 0.00 0.00 0.00 48 1016.0
20260906184610 80 51 2.0 7.0 0.00 0.00 0.00 49 1015.8
20260906184106 80 29 1.0 9.0 0.00 0.00 0.00 53 1016.0
20260906183601 79 21 2.0 3.0 0.00 0.00 0.00 57 1016.0
20260906183057 79 28 3.0 3.0 0.00 0.00 0.00 55 1015.8
20260906182552 79 352 2.0 6.0 0.00 0.00 0.00 56 1016.1
20260906182048 79 5 1.0 9.0 0.00 0.00 0.00 56 1015.8
20260906181543 79 24 2.0 4.0 0.00 0.00 0.00 56 1016.0
20260906181039 79 12 3.0 6.0 0.00 0.00 0.00 56 1016.1
20260906180534 79 5 6.0 8.0 0.00 0.00 0.00 53 1016.1
20260906180033 78 63 2.0 10.0 0.00 0.00 0.00 54 1016.2
20260906175532 79 356 3.0 8.0 0.00 0.00 0.00 55 1016.2
20260906175032 79 339 4.0 4.0 0.00 0.00 0.00 56 1016.0
20260906174530 79 12 3.0 6.0 0.00 0.00 0.00 58 1016.2
20260906174025 78 19 4.0 4.0 0.00 0.00 0.00 56 1016.2
20260906173520 78 348 2.0 4.0 0.00 0.00 0.00 58 1016.3
20260906173016 78 338 6.0 8.0 0.00 0.00 0.00 56 1016.4
20260906172510 78 3 2.0 8.0 0.00 0.00 0.00 58 1016.2
20260906172006 78 318 1.0 6.0 0.00 0.00 0.00 60 1016.6
20260906171501 78 46 2.0 3.0 0.00 0.00 0.00 60 1016.4
20260906170956 77 23 3.0 4.0 0.00 0.00 0.00 59 1016.5
20260906170452 78 43 3.0 4.0 0.00 0.00 0.00 59 1016.3
20260906165949 78 18 1.0 7.0 0.00 0.00 0.00 59 1016.6
20260906165448 77 334 1.0 4.0 0.00 0.00 0.00 60 1016.6
20260906164943 77 55 1.0 3.0 0.00 0.00 0.00 59 1016.5
20260906164441 77 20 2.0 4.0 0.00 0.00 0.00 61 1016.7
20260906163939 77 328 5.0 8.0 0.00 0.00 0.00 60 1016.6
20260906163434 77 335 1.0 6.0 0.00 0.00 0.00 61 1016.6
20260906162932 77 22 2.0 3.0 0.00 0.00 0.00 60 1016.7
20260906162431 76 352 2.0 7.0 0.00 0.00 0.00 58 1016.6
20260906161927 76 14 2.0 8.0 0.00 0.00 0.00 59 1016.8
20260906161426 77 286 2.0 3.0 0.00 0.00 0.00 60 1016.9
20260906160925 76 345 1.0 4.0 0.00 0.00 0.00 60 1017.0
20260906160418 76 252 1.0 6.0 0.00 0.00 0.00 60 1017.0
20260906155917 75 295 2.0 3.0 0.00 0.00 0.00 62 1017.1
20260906155416 75 325 3.0 6.0 0.00 0.00 0.00 62 1017.1
20260906154913 75 37 3.0 3.0 0.00 0.00 0.00 63 1016.8
20260906154413 75 338 3.0 7.0 0.00 0.00 0.00 62 1017.0
20260906153911 74 27 2.0 4.0 0.00 0.00 0.00 64 1017.0
20260906153410 75 346 4.0 9.0 0.00 0.00 0.00 64 1016.8
20260906152906 75 35 1.0 2.0 0.00 0.00 0.00 66 1017.1
20260906152400 74 348 1.0 2.0 0.00 0.00 0.00 69 1017.1
20260906151900 73 15 0.0 3.0 0.00 0.00 0.00 68 1016.9
20260906151355 73 33 4.0 6.0 0.00 0.00 0.00 68 1017.0
20260906150851 73 229 2.0 3.0 0.00 0.00 0.00 68 1016.9
20260906150346 72 37 0.0 3.0 0.00 0.00 0.00 69 1016.9
20260906145845 72 35 2.0 6.0 0.00 0.00 0.00 69 1017.0
20260906145344 72 29 2.0 4.0 0.00 0.00 0.00 70 1016.9
20260906144839 72 330 1.0 2.0 0.00 0.00 0.00 72 1016.9
20260906144329 73 25 2.0 4.0 0.00 0.00 0.00 69 1016.8
20260906143828 72 43 2.0 6.0 0.00 0.00 0.00 68 1016.7
20260906143325 72 14 3.0 4.0 0.00 0.00 0.00 69 1016.6
20260906142820 72 341 2.0 4.0 0.00 0.00 0.00 69 1016.4
20260906142315 72 11 3.0 3.0 0.00 0.00 0.00 70 1016.5
20260906141814 71 8 5.0 7.0 0.00 0.00 0.00 70 1016.4
20260906141309 71 25 4.0 4.0 0.00 0.00 0.00 71 1016.5
20260906140807 71 63 0.0 3.0 0.00 0.00 0.00 71 1016.5
20260906140303 71 344 2.0 7.0 0.00 0.00 0.00 73 1016.3
20260906135800 70 7 3.0 8.0 0.00 0.00 0.00 73 1016.4
20260906135255 70 207 1.0 4.0 0.00 0.00 0.00 74 1016.5
20260906134751 70 353 1.0 2.0 0.00 0.00 0.00 75 1016.5
20260906134246 70 1 1.0 4.0 0.00 0.00 0.00 75 1016.4
20260906133741 70 335 3.0 4.0 0.00 0.00 0.00 76 1016.5
20260906133237 69 40 2.0 3.0 0.00 0.00 0.00 76 1016.5
20260906132732 69 19 2.0 2.0 0.00 0.00 0.00 79 1016.4
20260906132227 69 19 2.0 3.0 0.00 0.00 0.00 80 1016.4
20260906131723 69 8 3.0 6.0 0.00 0.00 0.00 78 1016.5
20260906131218 69 26 2.0 4.0 0.00 0.00 0.00 80 1016.5
20260906130713 68 48 0.0 6.0 0.00 0.00 0.00 83 1016.5
20260906130208 68 30 0.0 4.0 0.00 0.00 0.00 86 1016.3
20260906125707 67 346 2.0 2.0 0.00 0.00 0.00 88 1016.2
20260906125205 67 42 0.0 1.0 0.00 0.00 0.00 89 1016.3
20260906124701 67 28 1.0 1.0 0.00 0.00 0.00 90 1016.3
20260906124156 67 28 0.0 1.0 0.00 0.00 0.00 90 1016.1
20260906123655 66 15 0.0 3.0 0.00 0.00 0.00 91 1016.1
20260906123150 66 34 0.0 1.0 0.00 0.00 0.00 93 1016.2
20260906122649 66 21 0.0 1.0 0.00 0.00 0.00 93 1016.3
20260906122145 67 353 0.0 1.0 0.00 0.00 0.00 93 1015.8
20260906121641 67 5 0.0 1.0 0.00 0.00 0.00 92 1015.7
20260906121137 67 356 0.0 0.0 0.00 0.00 0.00 91 1015.7
20260906120633 67 358 1.0 1.0 0.00 0.00 0.00 91 1015.6
20260906120131 67 16 0.0 1.0 0.00 0.00 0.00 92 1015.4
20260906115630 67 349 0.0 1.0 0.00 0.00 0.00 92 1015.3
20260906115126 67 352 0.0 0.0 0.00 0.00 0.00 91 1015.5
20260906114625 66 14 0.0 1.0 0.00 0.00 0.00 91 1015.3
20260906114120 66 358 0.0 0.0 0.00 0.00 0.00 93 1015.2
20260906113621 66 358 0.0 0.0 0.00 0.00 0.00 92 1015.4
20260906113120 67 2 0.0 0.0 0.00 0.00 0.00 92 1015.3
20260906112619 67 3 0.0 1.0 0.00 0.00 0.00 89 1015.2
20260906112117 66 27 0.0 1.0 0.00 0.00 0.00 90 1015.1
20260906111616 66 6 0.0 1.0 0.00 0.00 0.00 91 1015.0
20260906111111 66 10 0.0 1.0 0.00 0.00 0.00 91 1015.0
20260906110606 66 330 0.0 1.0 0.00 0.00 0.00 92 1014.9
20260906110106 66 14 0.0 0.0 0.00 0.00 0.00 92 1014.9
20260906105600 66 15 0.0 0.0 0.00 0.00 0.00 91 1014.8
20260906105056 66 14 0.0 1.0 0.00 0.00 0.00 91 1014.9
20260906104555 66 33 1.0 3.0 0.00 0.00 0.00 91 1014.7
20260906104049 66 5 1.0 3.0 0.00 0.00 0.00 91 1014.7
20260906103548 66 44 0.0 1.0 0.00 0.00 0.00 92 1014.5
20260906103044 67 28 0.0 1.0 0.00 0.00 0.00 92 1014.6
20260906102543 67 37 1.0 2.0 0.00 0.00 0.00 92 1014.6
20260906102038 67 349 2.0 2.0 0.00 0.00 0.00 93 1014.6
20260906101533 67 1 0.0 2.0 0.00 0.00 0.00 94 1014.5
20260906101027 67 338 1.0 2.0 0.00 0.00 0.00 95 1014.4
20260906100524 67 31 0.0 1.0 0.00 0.00 0.00 96 1014.4
20260906100023 67 27 1.0 1.0 0.00 0.00 0.00 96 1014.3
20260906095518 67 13 0.0 2.0 0.00 0.00 0.00 97 1014.4
20260906095014 67 13 3.0 3.0 0.00 0.00 0.00 97 1014.4
20260906094512 67 18 2.0 3.0 0.00 0.00 0.00 98 1014.1
20260906094009 67 26 0.0 1.0 0.00 0.00 0.00 98 1014.1
20260906093504 67 22 1.0 3.0 0.00 0.00 0.00 99 1014.2
20260906092959 67 23 0.0 2.0 0.00 0.00 0.00 99 1014.2
20260906092459 67 354 0.0 2.0 0.00 0.00 0.00 99 1014.1
20260906091954 67 307 1.0 2.0 0.00 0.00 0.00 99 1014.2
20260906091450 67 335 2.0 2.0 0.00 0.00 0.00 99 1014.0
20260906090947 67 10 1.0 2.0 0.00 0.00 0.00 99 1014.1
20260906090441 67 38 1.0 3.0 0.00 0.00 0.00 99 1014.1
20260906085941 67 7 0.0 2.0 0.00 0.00 0.00 99 1013.9
20260906085440 68 346 1.0 1.0 0.00 0.00 0.00 99 1013.9
20260906084939 68 29 0.0 2.0 0.00 0.00 0.00 99 1013.8
20260906084435 68 38 1.0 3.0 0.00 0.00 0.00 99 1013.8
20260906083934 68 27 2.0 3.0 0.00 0.00 0.00 99 1013.9
20260906083430 68 0 1.0 2.0 0.00 0.00 0.00 99 1013.8
20260906082929 68 24 1.0 1.0 0.00 0.00 0.00 99 1013.9
20260906082424 68 8 1.0 1.0 0.00 0.00 0.00 99 1013.9
20260906081920 69 34 0.0 2.0 0.00 0.00 0.00 99 1013.8
20260906081415 69 27 1.0 3.0 0.00 0.00 0.00 99 1013.9
20260906080911 69 300 1.0 3.0 0.00 0.00 0.00 99 1013.8
20260906080408 69 40 0.0 0.0 0.00 0.00 0.00 99 1013.9
20260906075906 69 27 0.0 2.0 0.00 0.00 0.00 99 1013.9
20260906075402 70 26 0.0 2.0 0.00 0.00 0.00 99 1013.7
20260906074857 70 21 1.0 1.0 0.00 0.00 0.00 99 1013.7
20260906074356 70 26 0.0 1.0 0.00 0.00 0.00 99 1013.8
20260906073855 71 24 0.0 0.0 0.00 0.00 0.00 99 1013.7
20260906073350 71 5 0.0 0.0 0.00 0.00 0.00 99 1013.7
20260906072847 71 345 1.0 1.0 0.00 0.00 0.00 99 1013.7
20260906072342 71 351 1.0 1.0 0.00 0.00 0.00 99 1013.7
20260906071839 71 345 1.0 1.0 0.00 0.00 0.00 99 1013.8
20260906071339 71 18 1.0 2.0 0.00 0.00 0.00 99 1014.0
20260906070835 71 38 0.0 0.0 0.00 0.00 0.00 99 1013.9
20260906070331 71 24 1.0 2.0 0.00 0.00 0.00 99 1013.8
20260906065826 71 335 0.0 1.0 0.00 0.00 0.00 99 1014.0
20260906065320 71 17 1.0 2.0 0.00 0.00 0.00 99 1014.1
20260906064817 71 7 0.0 2.0 0.00 0.00 0.00 99 1014.0
20260906064313 71 333 0.0 0.0 0.00 0.00 0.00 99 1013.8
20260906063812 71 22 0.0 1.0 0.00 0.00 0.00 99 1013.7
20260906063308 71 349 1.0 2.0 0.00 0.00 0.00 99 1014.0
20260906062803 71 17 0.0 1.0 0.00 0.00 0.00 99 1013.9
20260906062305 71 13 1.0 2.0 0.00 0.00 0.00 99 1014.0
20260906061758 71 7 3.0 4.0 0.00 0.00 0.00 99 1013.9
20260906061254 71 38 2.0 3.0 0.00 0.00 0.00 99 1013.9
20260906060749 71 37 2.0 3.0 0.00 0.00 0.00 99 1014.1
20260906060247 71 32 0.0 6.0 0.00 0.00 0.00 99 1014.0
20260906055742 72 350 2.0 2.0 0.00 0.00 0.00 99 1014.0
20260906055237 72 23 1.0 2.0 0.00 0.00 0.00 99 1013.7
20260906054732 72 22 2.0 3.0 0.00 0.00 0.00 99 1013.7
20260906054227 72 24 0.0 1.0 0.00 0.00 0.00 99 1013.9
20260906053724 72 12 1.0 1.0 0.00 0.00 0.00 99 1013.8
20260906053219 72 286 0.0 0.0 0.00 0.00 0.00 99 1013.8
20260906052714 72 12 0.0 1.0 0.00 0.00 0.00 99 1013.8
20260906052211 72 23 2.0 3.0 0.00 0.00 0.00 99 1013.9
20260906051708 72 341 1.0 1.0 0.00 0.00 0.00 99 1013.8
20260906051207 72 36 0.0 1.0 0.00 0.00 0.00 99 1013.7
20260906050702 72 33 1.0 1.0 0.00 0.00 0.00 99 1013.7
20260906050157 73 51 0.0 2.0 0.00 0.00 0.00 99 1013.6
20260906045655 73 337 1.0 2.0 0.00 0.00 0.00 99 1013.6
20260906045151 73 35 0.0 3.0 0.00 0.00 0.00 99 1013.6
20260906044647 73 11 2.0 2.0 0.00 0.00 0.00 99 1013.4
20260906044142 73 21 0.0 0.0 0.00 0.00 0.00 99 1013.5
20260906043638 73 345 1.0 2.0 0.00 0.00 0.00 99 1013.1
20260906043133 72 31 0.0 1.0 0.00 0.00 0.00 99 1013.1
20260906042633 72 10 0.0 1.0 0.00 0.00 0.00 99 1013.1
20260906042127 72 24 0.0 1.0 0.00 0.00 0.00 99 1012.9
20260906041623 72 30 0.0 1.0 0.00 0.00 0.00 99 1013.0
20260906041124 72 40 0.0 1.0 0.00 0.00 0.00 99 1013.1
20260906040619 72 72 0.0 0.0 0.00 0.00 0.00 99 1013.1
20260906040115 72 72 0.0 0.0 0.00 0.43 0.43 99 1013.1
20260906035610 72 72 0.0 0.0 0.00 0.43 0.43 99 1013.1
20260906035106 72 73 0.0 0.0 0.00 0.43 0.43 99 1013.1
20260906034605 72 73 0.0 0.0 0.00 0.43 0.43 99 1013.1
20260906034101 72 95 0.0 0.0 0.00 0.43 0.43 99 1013.1
20260906033556 72 95 0.0 0.0 0.00 0.43 0.43 99 1012.9
20260906033051 72 95 0.0 0.0 0.00 0.43 0.43 99 1013.0
20260906032548 72 94 0.0 0.0 0.00 0.43 0.43 99 1013.1
20260906032047 72 107 0.0 0.0 0.00 0.43 0.43 99 1013.0
20260906031543 72 107 0.0 0.0 0.00 0.43 0.43 99 1012.7
20260906031039 72 107 0.0 0.0 0.00 0.43 0.43 99 1013.0
20260906030538 72 107 0.0 0.0 0.00 0.43 0.43 99 1012.8
20260906030038 72 107 0.0 1.0 0.00 0.43 0.43 99 1012.9
20260906025538 72 107 0.0 0.0 0.00 0.43 0.43 99 1013.0
20260906025036 72 107 0.0 0.0 0.00 0.43 0.43 99 1013.1
20260906024532 72 107 0.0 0.0 0.00 0.43 0.43 99 1013.0
20260906024031 72 107 0.0 0.0 0.00 0.43 0.43 99 1013.1
20260906023528 72 106 0.0 0.0 0.00 0.43 0.43 99 1013.0
20260906023022 72 106 0.0 0.0 0.00 0.43 0.43 99 1013.1
20260906022518 72 106 0.0 0.0 0.00 0.43 0.43 99 1013.0
20260906022013 72 106 0.0 0.0 0.00 0.43 0.43 99 1012.9
20260906021508 72 106 0.0 0.0 0.00 0.43 0.43 99 1013.2
20260906021002 72 106 0.0 0.0 0.00 0.43 0.43 99 1012.9
20260906020501 72 106 0.0 0.0 0.00 0.43 0.43 99 1013.1
20260906020001 72 106 0.0 0.0 0.00 0.43 0.43 99 1013.2
20260906015500 72 106 0.0 0.0 0.00 0.43 0.43 99 1013.2
20260906015000 72 106 0.0 0.0 0.00 0.43 0.43 99 1013.3
20260906014455 72 106 0.0 0.0 0.00 0.43 0.43 99 1013.1
20260906013951 72 106 0.0 0.0 0.00 0.43 0.43 99 1013.3
20260906013447 72 106 0.0 0.0 0.00 0.43 0.43 99 1013.2
20260906012943 72 106 0.0 1.0 0.00 0.43 0.43 99 1013.4
20260906012443 72 107 0.0 1.0 0.00 0.43 0.43 99 1013.2
20260906011942 72 106 0.0 0.0 0.00 0.43 0.43 99 1013.0
20260906011437 72 106 0.0 0.0 0.00 0.43 0.43 99 1012.8
20260906010933 72 105 0.0 0.0 0.00 0.43 0.43 99 1012.7
20260906010428 72 156 0.0 0.0 0.00 0.43 0.43 99 1012.7
20260906005924 72 202 0.0 0.0 0.00 0.43 0.43 99 1012.7
20260906005424 72 165 0.0 0.0 0.00 0.43 0.43 99 1012.7
20260906004922 72 164 0.0 0.0 0.12 0.43 0.43 99 1012.6
20260906004416 71 164 0.0 0.0 0.12 0.43 0.43 99 1012.6
20260906003912 71 154 1.0 1.0 0.00 0.41 0.41 99 1012.4
20260906003407 71 25 0.0 0.0 0.00 0.41 0.41 99 1012.3
20260906002903 71 25 0.0 1.0 0.00 0.41 0.41 99 1012.5
20260906002402 71 24 0.0 0.0 0.00 0.41 0.41 99 1012.4
20260906001857 71 24 0.0 0.0 0.00 0.41 0.41 99 1012.3
20260906001353 71 24 0.0 1.0 0.00 0.41 0.41 99 1012.0
20260906000853 71 34 0.0 0.0 0.00 0.41 0.41 99 1011.7
20260906000355 71 37 0.0 1.0 0.00 0.41 0.41 99 1011.7
20260905235849 71 36 0.0 0.0 0.00 0.41 0.41 99 1011.7
20260905235343 71 169 0.0 0.0 0.00 0.41 0.41 99 1011.7
20260905234838 71 169 0.0 1.0 0.00 0.41 0.41 99 1012.0
20260905234333 71 170 0.0 1.0 0.00 0.41 0.41 98 1012.2
20260905233829 71 171 1.0 1.0 0.00 0.41 0.41 98 1012.2
20260905233323 70 184 0.0 0.0 0.05 0.41 0.41 97 1012.0
20260905232822 70 196 0.0 1.0 0.78 0.41 0.41 95 1012.1
20260905232319 71 181 2.0 7.0 1.91 0.40 0.40 95 1012.0
20260905231814 73 336 11.0 24.0 0.97 0.23 0.23 93 1013.2
20260905231309 80 36 5.0 9.0 0.00 0.07 0.07 85 1012.4
20260905230806 83 10 4.0 4.0 0.00 0.07 0.07 83 1012.4
20260905230303 83 165 0.0 0.0 0.00 0.07 0.07 82 1011.8
20260905225803 83 165 0.0 0.0 0.00 0.07 0.07 80 1011.1
20260905225258 83 165 0.0 1.0 0.00 0.07 0.07 81 1011.1
20260905224758 84 165 0.0 0.0 0.00 0.07 0.07 79 1011.1
20260905224253 84 167 0.0 1.0 0.00 0.07 0.07 80 1011.2
20260905223749 84 166 0.0 0.0 0.00 0.07 0.07 79 1011.6
20260905223246 85 166 0.0 1.0 0.00 0.07 0.07 77 1011.2
20260905222741 86 43 0.0 0.0 0.00 0.07 0.07 73 1011.3
20260905222240 87 43 0.0 1.0 0.00 0.07 0.07 71 1011.6